This demonstration page uses our WeatherBlox Daily Observations layout. Learn more.

Left ArrowRight Arrow

40.92945, -100.16068

Hourly Observations for February 13, 2022

Temp ( °F °C ) Dew Point ( °F °C ) Humidity (%) Winds ( mph kmh ) Pressure ( in mb ) Visibility ( mi km ) Precip ( " mm )
12:15 am 00:15 Clear 35 1.4 14 -9.8 43 43 NW 15 24 30.30 1026 10 16 0.00 0.00
12:35 am 00:35 Clear 34 1 15 -9.5 46 46 NW 13 20 30.32 1027 10 16 0.00 0.00
12:55 am 00:55 Clear 32 0 15 -9.5 49 49 NW 14 22 30.33 1027 10 16 0.00 0.00
1:15 am 01:15 Clear 32 -0.1 15 -9.5 50 50 NW 13 20 30.34 1027 10 16 0.00 0.00
1:35 am 01:35 Clear 30 -1.1 15 -9.6 53 53 NW 12 19 30.35 1028 10 16 0.00 0.00
1:55 am 01:55 Clear 27 -2.9 14 -10.2 58 58 NW 10 17 30.38 1029 10 16 0.00 0.00
2:15 am 02:15 Clear 27 -2.9 14 -9.9 59 59 NW 10 17 30.39 1029 10 16 0.00 0.00
2:35 am 02:35 Clear 27 -2.6 15 -9.2 61 61 NW 12 19 30.38 1029 10 16 0.00 0.00
2:55 am 02:55 Clear 26 -3.2 15 -9.4 63 63 NNW 12 19 30.40 1029 10 16 0.00 0.00
3:15 am 03:15 Clear 25 -4 15 -9.5 66 66 NNW 12 19 30.42 1030 10 16 0.00 0.00
3:35 am 03:35 Clear 24 -4.7 14 -10 67 67 N 10 17 30.43 1030 10 16 0.00 0.00
3:55 am 03:55 Clear 25 -3.9 12 -11 58 58 N 13 20 30.44 1031 10 16 0.00 0.00
4:15 am 04:15 Clear 23 -5 11 -11.6 60 60 N 9 15 30.46 1031 10 16 0.00 0.00
4:35 am 04:35 Clear 20 -6.4 10 -12 65 65 N 8 13 30.47 1032 10 16 0.00 0.00
4:55 am 04:55 Clear 20 -6.7 11 -11.8 67 67 N 7 11 30.48 1032 10 16 0.00 0.00
5:15 am 05:15 Clear 18 -8 10 -12.3 72 72 N 6 9 30.49 1033 10 16 0.00 0.00
5:35 am 05:35 Clear 16 -8.8 9 -12.6 74 74 N 5 7 30.50 1033 10 16 0.00 0.00
5:55 am 05:55 Clear 17 -8.3 10 -12.2 74 74 NNW 5 7 30.49 1033 10 16 0.00 0.00
6:15 am 06:15 Clear 15 -9.5 9 -12.8 77 77 W 3 6 30.52 1033 10 16 0.00 0.00
6:35 am 06:35 Clear 13 -10.6 7 -13.9 77 77 WNW 3 6 30.52 1033 10 16 0.00 0.00
6:55 am 06:55 Clear 13 -10.5 8 -13.5 79 79 NNW 6 9 30.52 1033 10 16 0.00 0.00
7:15 am 07:15 Clear 12 -10.9 7 -13.8 79 79 NW 3 6 30.53 1034 10 16 0.00 0.00
7:35 am 07:35 Clear 11 -11.7 6 -14.5 80 80 NNW 6 9 30.53 1034 10 16 0.00 0.00
7:55 am 07:55 Sunny 11 -11.4 7 -13.8 83 83 Calm 30.54 1034 10 16 0.00 0.00
8:15 am 08:15 Sunny 14 -10.2 9 -12.9 81 81 Calm 30.54 1034 10 16 0.00 0.00
8:35 am 08:35 Sunny 17 -8.1 11 -11.7 76 76 Calm 30.52 1034 10 16 0.00 0.00
8:55 am 08:55 Sunny 18 -7.6 11 -11.6 73 73 Calm 30.52 1033 10 16 0.00 0.00
9:35 am 09:35 Sunny 20 -6.8 12 -11.3 71 71 ESE 5 7 30.51 1033 10 16 0.00 0.00
9:55 am 09:55 Sunny 20 -6.5 12 -11.1 70 70 SE 5 7 30.51 1033 10 16 0.00 0.00
10:15 am 10:15 Sunny 22 -5.8 13 -10.8 68 68 ESE 6 9 30.50 1033 10 16 0.00 0.00
10:35 am 10:35 Sunny 23 -4.8 13 -10.5 65 65 SSE 5 7 30.50 1033 10 16 0.00 0.00
10:55 am 10:55 Sunny 26 -3.5 13 -10.3 60 60 S 5 7 30.47 1032 10 16 0.00 0.00
11:15 am 11:15 Sunny 29 -1.9 14 -9.9 55 55 S 7 11 30.44 1031 10 16 0.00 0.00
11:35 am 11:35 Sunny 31 -0.7 14 -9.8 51 51 S 6 9 30.43 1030 10 16 0.00 0.00
11:55 am 11:55 Sunny 33 0.5 15 -9.3 48 48 SSW 7 11 30.40 1030 10 16 0.00 0.00
12:15 pm 12:15 Sunny 35 1.6 15 -9.3 45 45 S 8 13 30.37 1029 10 16 0.00 0.00
12:35 pm 12:35 Sunny 36 2.4 16 -9.1 43 43 SW 12 19 30.34 1028 10 16 0.00 0.00
12:55 pm 12:55 Sunny 38 3.1 16 -9 41 41 S 14 22 30.33 1027 10 16 0.00 0.00
1:15 pm 13:15 Sunny 38 3.5 15 -9.2 39 39 S 13 20 30.30 1026 10 16 0.00 0.00
1:35 pm 13:35 Sunny 40 4.4 16 -9.1 37 37 SSW 14 22 30.27 1025 10 16 0.00 0.00
1:55 pm 13:55 Sunny 41 4.9 16 -9 36 36 SSW 14 22 30.25 1024 10 16 0.00 0.00
2:15 pm 14:15 Sunny 42 5.8 16 -8.9 34 34 S 15 24 30.22 1023 10 16 0.00 0.00
2:35 pm 14:35 Sunny 44 6.6 16 -8.7 33 33 SSW 15 24 30.20 1023 10 16 0.00 0.00
2:55 pm 14:55 Sunny 45 7.4 17 -8.5 32 32 SSW 17 28 30.19 1022 10 16 0.00 0.00
3:15 pm 15:15 Sunny 46 7.7 17 -8.5 31 31 SW 13 20 30.16 1021 10 16 0.00 0.00
3:35 pm 15:35 Sunny 47 8.3 17 -8.2 30 30 SSW 13 20 30.15 1021 10 16 0.00 0.00
3:55 pm 15:55 Sunny 48 9 18 -8 29 29 SSW 14 22 30.13 1020 10 16 0.00 0.00
4:15 pm 16:15 Sunny 49 9.2 18 -8 29 29 SSW 15 24 30.12 1020 10 16 0.00 0.00
4:35 pm 16:35 Sunny 49 9.7 18 -7.8 29 29 SSW 15 24 30.10 1019 10 16 0.00 0.00
4:55 pm 16:55 Sunny 50 9.9 18 -7.8 28 28 S 16 26 30.08 1019 10 16 0.00 0.00
5:15 pm 17:15 Sunny 50 9.8 18 -7.7 29 29 S 12 19 30.07 1018 10 16 0.00 0.00
5:35 pm 17:35 Sunny 49 9.3 18 -7.7 30 30 S 10 17 30.08 1019 10 16 0.00 0.00
5:55 pm 17:55 Sunny 46 8 18 -7.8 32 32 S 8 13 30.09 1019 10 16 0.00 0.00
6:15 pm 18:15 Clear 42 5.7 17 -8.1 37 37 SSE 5 7 30.11 1020 10 16 0.00 0.00
6:35 pm 18:35 Clear 41 5 17 -8.3 38 38 SSE 8 13 30.12 1020 10 16 0.00 0.00
6:55 pm 18:55 Clear 39 3.8 17 -8.4 41 41 SSE 9 15 30.13 1020 10 16 0.00 0.00
7:15 pm 19:15 Clear 39 4 18 -8 42 42 SSE 12 19 30.12 1020 10 16 0.00 0.00
7:35 pm 19:35 Clear 38 3.4 17 -8.3 42 42 SSE 7 11 30.12 1020 10 16 0.00 0.00
7:55 pm 19:55 Clear 38 3.3 17 -8.2 43 43 SSE 5 7 30.12 1020 10 16 0.00 0.00
8:15 pm 20:15 Clear 38 3.1 18 -7.7 45 45 SSW 5 7 30.13 1020 10 16 0.00 0.00
8:35 pm 20:35 Clear 38 3.1 17 -8.1 44 44 Calm 30.13 1020 10 16 0.00 0.00
8:55 pm 20:55 Clear 38 3.1 18 -7.8 45 45 S 7 11 30.13 1020 10 16 0.00 0.00
9:15 pm 21:15 Clear 34 1.3 17 -8.4 49 49 SW 7 11 30.14 1021 10 16 0.00 0.00
9:35 pm 21:35 Clear 32 0.2 17 -8.6 52 52 Calm 30.16 1021 10 16 0.00 0.00
9:55 pm 21:55 Clear 26 -3.4 12 -11.1 56 56 NW 6 9 30.20 1023 10 16 0.00 0.00
10:15 pm 22:15 Clear 24 -4.6 12 -11.2 60 60 NW 5 7 30.22 1023 10 16 0.00 0.00
10:35 pm 22:35 Clear 24 -4.5 12 -11 61 61 WNW 8 13 30.23 1024 10 16 0.00 0.00
10:55 pm 22:55 Clear 29 -1.7 16 -8.8 59 59 WNW 8 13 30.21 1023 10 16 0.00 0.00
11:15 pm 23:15 Clear 25 -4.1 14 -10.2 63 63 WNW 3 6 30.24 1024 10 16 0.00 0.00
11:35 pm 23:35 Clear 26 -3.6 15 -9.6 64 64 W 10 17 30.24 1024 10 16 0.00 0.00
11:55 pm 23:55 Clear 26 -3.1 15 -9.6 61 61 W 7 11 30.25 1024 10 16 0.00 0.00

Powered by AerisWeather